User: anonymous   Login
Location: Unspecified
(0.0000°N, 0.0000°E)
Time: 00:34:08
(UTC+00:00)
Language:

Alouette 2 - Orbit

View from above orbital plane
View from above orbital plane
View from above satellite
View from above satellite

Ground track
Ground track

The orbit data is extracted from the following two-line orbital elements,

1  1804U 65098A   18317.85328733  .00000082  00000-0  19784-4 0  9993
2  1804  79.7991 107.0789 1343663  75.0569 299.5028 12.25353329339057
Epoch (UTC): 13 November 2018 20:28:44
Eccentricity: 0.1343663
inclination: 79.7991°
perigee height: 501 km
apogee height: 2637 km
right ascension of ascending node: 107.0789°
argument of perigee: 75.0569°
revolutions per day: 12.25353329
mean anomaly at epoch: 299.5028°
orbit number at epoch: 33905

The dashed part of the orbit path shows where the satellite is in the earth's shadow,  

DLR